Regional Weather Roundup
Issued by NWS

Home | Current Version | Previous Version | Text Only | Print | Product List | Glossary Off
Versions: 1 2 3 4 5 6 7 8 9 10 11 12 13 14 15 16 17 18 19 20 21 22 23 24 25 26 27

000
ASUS45 KCYS 211610
RWRWY

WYOMING REGIONAL WEATHER ROUNDUP
NATIONAL WEATHER SERVICE CHEYENNE WY
900 AM MST TUE FEB 21 2017

NOTE:  "FAIR" INDICATES FEW OR NO CLOUDS BELOW 12,000 FEET
WITH NO SIGNIFICANT WEATHER AND/OR OBSTRUCTIONS TO VISIBILITY.

WYZ001-211700-
YELLOWSTONE NATIONAL PARK

CITY           SKY/WX    TMP DP  RH WIND       PRES   REMARKS
LK YELLOWSTONE   N/A     31  28  89 W12G28    29.90R WCI  22
W YELLOWSTONE  NOT AVBL

$$
WYZ002>013-054>058-071-098>099-211700-
NORTHERN WYOMING

CITY           SKY/WX    TMP DP  RH WIND       PRES   REMARKS
JACKSON        CLOUDY    39  32  75 S20G32    29.91R WCI  30
CODY           LGT RAIN  45  35  68 SW14G25   29.81R
GREYBULL       FAIR      39  32  76 S5        29.78S
WORLAND        FAIR      47  35  63 SW8       29.79S
SHERIDAN       FAIR      48  32  53 VRB6      29.73S
BUFFALO        FAIR      56  29  35 W17G23    29.76F
GILLETTE       FAIR      54  33  45 SW28G36   29.75S
HULETT         FAIR      52  32  46 SW15G21   29.77F
NEWCASTLE      FAIR      52  32  46 S8G20     29.85F

$$
WYZ014>020-022>026-101>103-211700-
CENTRAL WYOMING

CITY           SKY/WX    TMP DP  RH WIND       PRES   REMARKS
BIG PINEY      MIX PCPN  36  32  85 SW17      30.01S WCI  26
PINEDALE       CLOUDY    36  32  87 SW10      30.02S WCI  28
DUBOIS         LGT RAIN  34  32  93 NW12G21   29.88R WCI  25
LANDER         CLOUDY    48  34  58 SW17G24   29.89S
RIVERTON       FAIR      47  32  56 SW13      29.91R
CASPER         FAIR      49  32  52 SW37G46   29.90R
DOUGLAS        FAIR      56  29  35 W36G45    29.90S

$$
WYZ021-027>030-104>119-211700-
SOUTHERN WYOMING

CITY           SKY/WX    TMP DP  RH WIND       PRES   REMARKS
EVANSTON       FAIR      40  30  67 SW28      30.06S WCI  29
KEMMERER         N/A     37  32  81 SW21G29   30.05S WCI  27
FORT BRIDGER   FAIR      43  31  63 SW15      30.09S
ROCK SPRINGS   FAIR      44  28  53 SW16      30.07R
DIXON            N/A     46  32  57 S24G37    30.17S
RAWLINS        FAIR      43  31  62 SW30G38   30.10R
SARATOGA       FAIR      45  30  57 SW28G33   30.13S
LARAMIE        FAIR      46  26  45 W18G26    30.11R
CHEYENNE       FAIR      54  24  31 W21G40    30.06R
TORRINGTON     FAIR      61  27  27 W32G44    29.89S
PINE BLUFFS    FAIR      59  25  27 MISG      29.97R

$$




USA.gov is the U.S. government's official web portal to all federal, state and local government web resources and services.